SL-16 DEB

Satellite information

Favourite Embed

Satellite Type and Status

DEBRISIN ORBIT

Key statistics

Satellite SL-16 DEB at a glance.

Uptime

11880

Days in orbit

Revolutions

≈ 14.3

Per day

Orbit

LEO

Low Earth Orbit

Inclination

71.3

Latest

Satellite identification and parameters

Extended collection of information and parameters for SL-16 DEB.

Object identification

Identified? True

Debris? True

Object name: SL-16 DEB

International designator: 1992-093DT

Object number (NORAD): 22426

Object ID (CCSDS): 22426

Country: COMMONWEALTH OF INDEPENDENT STATES (CIS)

Current information (Y/N): Y

RCS size: SMALL

Orbital parameters

Period: 100.871 minutes

Inclination: 71.3492 deg

SMA: 7178.026 km

Apoapsis: 888.219 km

Periapsis: 711.563 km

RAAN: 301.2083 deg

Eccentricy: 0.0123053

Argument of periapsis: 53.7931 deg

Mean anomaly: 26.4935 deg

Mean motion: 14.27562736 rev/day

Mean motion (dot): 0.00001121 rev/day2

B* drag term: 0.00043747 1/REarth

Two-line elements (TLE)

Creation date: July 4, 2025, 6:39 p.m.

Reference frame: TEME

Reference center: EARTH

Epoch: July 4, 2025, 11:18 a.m. UTC

TLE line 0: 0 SL-16 DEB

TLE line 1: 1 22426U 92093DT 25185.47090624 .00001121 00000-0 43747-3 0 9995

TLE line 2: 2 22426 71.3492 301.2083 0123053 53.7931 26.4935 14.27562736673539

Live tracking on map

Real-time ground track for satellite SL-16 DEB.

In-orbit conjunctions

A list of the most updated potential collisions computed for object SL-16 DEB.

Target Orbit TCA Probability of collision Miss distance Type
OV1-20/OV1-21 DEB LEO 2025-04-25 17:51:08 0.0001155953 197.0 (m) DEBRIS

Associated space launch

Second generation ELING satellite

SL-16 DEB was lifted into orbit during the mission ‘Zenit-2 | Tselina-2 12’, on board a Zenit-2 space rocket.

The launch took place on Dec. 25, 1992, 5:56 a.m. from 45/1.

For more information about the launch, click the button.

Launch to space Zenit-2 | Tselina-2 12
Zenit-2 | Tselina-2 12

Agency: N/A

Status: Launch Successful

Launch date: Dec. 25, 1992, 5:56 a.m. UTC

Rocket: Zenit-2

Launch pad: 45/1

Location: Baikonur Cosmodrome, Republic of Kazakhstan

...

Latest news about this satellite

There are no fresh news available about this satellite. Check back as we update our databases every day.


Newsletter sign-up

Weekly statistics, charts and insights to help you stay on top of the space industry.